Presure
164 177 153 100 179 191 239 111 127 222 136 154 162 149 181 194 184 181 184 188 180 122 132 131 197 142 153 141 245 237 201 214 207 220 204 210 201 196 184 199 212 194 191 205 150
159 173 178 205 220 242 133 126 208 117 146 146 177 177 194 151 180 184 186 192 131 133 127 159 155 117 120 174 177 177 162 139 185 209 220 197 215 224 160 205 191 206 167 191 165
194 230 216 238 230 178 105 126 204 179 179 171 173 194 170 180 185 172 200 133 160 150 169 182 118 162 179 176 163 187 175 185 177 168 186 218 208 216 209 217 209 218 211 151 217
217 225 213 222 169 104 119 128 127 182 156 176 181 188 183 176 183 191 160 179 155 172 150 154 123 179 160 173 174 163 177 177 186 165 157 166 165 174 178 176 167 211 220 213 210
206 207 193 109 161 104 110 108 114 191 173 195 152 184 158 184 167 173 149 178 161 167 140 129 162 170 118 166 160 174 172 166 171 167 165 163 165 168 171 170 154 159 162 136 210
199 228 206 168 100 182 103 113 128 158 195 143 179 162 171 182 178 170 176 175 153 161 127 165 164 164 168 162 160 161 155 143 149 148 160 163 160 159 170 163 163 151 171 183 200
223 215 173 192 168 122 133 117 177 125 97 139 145 181 174 168 174 182 176 161 154 180 157 143 162 163 163 160 157 153 159 157 139 171 159 149 157 159 178 176 176 188 181 191 193
213 174 159 180 181 174 150 167 179 177 189 182 146 176 182 160 165 162 164 152 177 144 160 151 159 164 166 157 166 160 157 143 145 190 166 164 158 165 162 150 158 161 147 188 186
170 192 181 162 166 172 159 162 151 181 189 118 187 169 182 163 166 166 159 151 148 167 166 153 164 169 166 162 166 151 161 133 146 186 164 151 154 153 143 155 161 177 164 180 166
188 166 180 175 171 156 162 195 176 191 157 119 127 166 184 171 157 160 155 153 167 154 163 166 175 175 179 164 173 159 175 145 138 140 147 153 156 154 148 152 149 178 165 178 180
179 180 161 168 169 167 186 155 179 186 169 120 182 169 178 177 162 166 158 149 133 159 162 166 161 169 163 165 181 134 165 146 149 137 170 159 153 151 162 138 152 171 172 174 178
158 164 164 123 156 142 188 133 172 177 187 160 153 165 176 175 171 164 165 149 168 159 159 172 166 170 167 162 140 168 181 165 144 142 156 163 158 152 148 170 167 169 174 178 180
165 144 111 157 155 159 177 172 186 178 186 184 180 164 169 177 159 153 167 125 164 155 160 158 165 161 169 185 178 128 175 182 141 149 168 149 150 151 149 157 174 170 172 179 178
166 143 169 154 161 103 171 160 169 161 176 158 155 176 176 177 175 164 160 151 154 169 158 167 164 168 172 167 143 161 176 184 168 148 142 159 143 152 161 149 181 169 174 180 179
151 167 136 171 127 133 144 103 125 126 155 168 185 175 181 178 152 155 157 154 162 162 167 162 167 174 165 164 158 178 180 184 147 143 152 154 150 147 163 176 184 169 177 192 181
93 151 114 132 134 136 153 107 168 161 182 184 182 179 140 149 161 162 152 157 170 168 158 170 171 171 166 146 170 180 183 148 148 153 155 150 147 145 161 180 171 181 183 188 183
152 152 169 145 136 107 136 139 133 152 158 160 187 115 183 168 152 155 120 131 179 171 171 152 163 165 169 168 171 190 150 153 153 149 151 152 147 152 166 178 182 179 159 181 197
97 152 151 103 157 149 146 166 167 153 153 162 170 158 167 166 158 157 91 155 166 182 144 158 170 168 178 178 200 177 154 149 143 151 158 154 156 160 175 185 181 186 183 190 174
157 144 94 103 155 155 152 158 159 168 155 168 151 153 155 149 150 149 152 163 160 165 170 169 157 179 161 167 174 145 154 150 146 154 146 140 158 170 173 190 180 194 179 180 172
174 135 167 146 148 147 158 151 146 152 165 147 146 150 157 154 152 155 161 158 167 156 164 175 176 157 166 157 163 144 150 147 155 152 148 152 154 171 174 177 180 184 177 179 177
179 169 163 151 145 141 160 89 150 147 171 147 168 165 141 158 156 151 163 159 166 164 162 173 154 157 164 159 150 151 160 144 157 144 149 156 157 169 169 177 182 177 167 180 177
166 147 173 147 152 155 163 156 166 157 150 143 166 171 137 144 162 156 161 157 163 163 159 152 159 169 159 159 150 152 152 155 155 148 158 153 168 164 168 170 189 187 168 179 189
181 181 190 168 155 156 148 167 84 148 140 141 129 151 136 149 159 157 157 155 159 161 163 158 151 155 151 155 153 154 153 145 146 171 159 153 175 170 170 171 187 189 181 178 191
189 182 157 152 170 153 143 139 157 147 124 124 142 142 149 154 154 153 154 151 156 159 160 158 147 152 144 149 158 146 158 160 153 167 163 158 174 169 162 172 185 182 191 192 171
164 185 156 147 152 160 144 140 149 145 145 154 166 161 147 152 156 150 152 155 154 152 158 159 161 156 156 161 152 156 157 160 149 160 161 159 172 167 163 178 179 179 189 187 187
167 164 186 163 147 159 173 170 149 142 154 169 155 146 172 156 148 149 150 153 154 151 146 143 150 148 149 156 145 155 154 143 156 155 157 159 168 166 159 173 170 181 181 188 184
167 167 160 186 166 164 157 149 146 151 148 149 145 148 156 149 144 150 152 150 149 153 148 149 148 151 157 154 147 143 152 155 161 152 158 159 165 170 152 171 167 180 182 181 192
Wind_Speed
50 62 41 8 36 12 13 12 19 4 20 10 11 14 15 15 14 15 17 13 17 32 30 33 29 30 30 33 27 25 25 32 31 29 32 30 33 28 23 35 26 35 37 30 38
43 44 31 33 18 9 14 18 9 14 10 12 12 13 14 16 13 14 15 14 28 29 31 30 31 35 36 39 34 35 28 27 25 29 21 28 20 15 28 30 38 31 39 37 42
40 25 22 11 13 22 13 16 8 15 11 14 13 14 13 13 12 14 8 28 21 29 28 24 34 35 31 33 39 37 36 34 32 29 31 24 27 24 26 25 30 28 27 47 29
27 18 16 13 22 14 16 18 16 12 17 12 15 11 12 14 11 10 19 15 25 23 32 31 37 30 38 35 35 39 34 34 35 35 40 26 22 28 33 33 31 36 39 40 38
25 20 23 15 22 13 16 18 19 12 12 10 16 11 15 10 13 13 25 14 23 23 34 36 33 33 28 34 35 31 31 31 29 32 32 32 32 34 39 35 31 42 44 59 40
24 22 24 24 11 18 12 21 20 17 10 13 13 15 11 9 12 13 15 15 25 27 37 31 33 35 34 36 38 36 34 38 35 36 33 38 38 37 45 45 44 45 53 54 55
22 28 23 22 20 25 21 24 13 13 18 19 17 8 10 13 13 11 15 21 24 20 31 37 34 34 34 33 36 38 37 35 40 35 37 43 44 45 53 58 61 66 69 65 62
25 24 29 21 19 17 22 17 12 10 10 11 19 10 11 17 16 20 21 24 24 33 32 37 37 35 35 37 35 36 40 42 45 41 39 43 48 53 57 53 61 64 50 69 67
28 27 23 23 18 18 20 19 19 11 11 27 8 12 12 16 16 18 22 30 31 26 32 39 38 36 38 40 41 41 41 44 47 47 48 53 56 58 55 65 68 71 71 74 69
25 27 22 19 19 21 20 12 11 11 19 26 28 15 12 13 19 20 22 27 27 33 34 35 36 39 40 43 46 47 49 48 53 61 62 60 59 61 64 69 72 72 76 81 80
27 24 27 20 20 19 15 19 11 10 14 29 9 14 14 14 18 19 22 29 27 31 35 37 40 41 41 46 50 46 50 53 55 61 53 57 61 63 68 61 75 79 81 82 81
32 27 26 25 24 18 14 29 13 11 12 16 21 16 15 17 18 19 22 30 29 32 35 36 38 42 43 45 48 50 52 52 55 60 59 60 63 68 71 78 82 81 80 82 82
32 29 18 24 24 22 16 15 11 10 12 12 13 18 16 19 19 24 24 29 29 34 36 38 40 41 46 50 47 49 52 52 58 58 55 67 70 73 77 82 84 80 82 85 84
33 27 26 26 24 8 17 18 14 17 11 17 21 17 19 19 21 22 25 31 34 33 35 38 40 44 47 47 49 50 53 53 53 61 65 64 70 74 82 81 85 81 83 84 83
38 31 41 28 32 17 26 12 34 35 20 17 17 19 20 20 27 26 27 33 33 35 38 39 42 47 46 47 48 53 51 50 61 64 65 66 72 76 84 89 85 81 85 85 85
11 38 23 29 34 38 28 18 18 20 15 16 16 18 34 28 24 25 32 34 34 36 38 40 44 44 46 50 51 49 49 57 61 64 68 72 77 78 86 89 87 87 89 86 88
41 37 33 39 42 19 38 32 25 24 22 23 16 19 18 22 30 31 31 33 35 36 39 42 42 45 47 48 49 46 53 57 63 71 72 73 76 82 92 90 90 90 86 88 92
19 38 38 16 33 28 31 25 24 25 25 21 18 24 20 21 29 30 35 34 35 35 40 41 45 43 50 48 47 46 54 59 62 65 71 76 83 88 91 91 89 91 88 93 95
45 42 21 19 35 33 32 29 25 24 26 22 28 29 28 32 34 36 37 35 37 38 41 44 42 50 49 48 47 56 58 61 66 68 73 78 83 94 92 91 93 89 90 94 97
49 41 42 42 40 38 35 31 35 30 26 32 32 32 30 33 36 36 36 40 38 41 41 46 48 47 47 51 50 58 60 64 66 66 70 80 82 93 94 94 94 90 92 95 98
49 50 44 44 44 37 38 15 35 35 27 33 28 29 37 33 35 40 38 41 40 41 42 46 44 46 49 51 54 58 58 66 68 72 73 75 85 94 94 97 96 92 96 97 99
49 51 48 48 45 42 42 36 36 36 36 37 29 27 43 43 34 40 39 44 44 43 44 44 46 48 52 55 57 61 63 66 69 72 76 75 94 92 94 98 95 94 95 100 103
47 50 48 50 48 47 43 41 21 40 42 40 42 36 44 41 38 40 42 45 47 47 46 47 47 49 58 62 64 64 66 67 71 80 83 82 98 94 97 100 99 97 96 99 103
48 50 51 52 54 48 45 47 42 42 48 47 44 43 41 42 41 43 45 47 49 53 51 52 47 46 56 61 62 67 68 69 73 81 86 94 100 96 92 100 102 99 102 104 99
56 51 55 55 53 52 51 49 47 46 46 43 37 39 44 43 42 46 46 47 50 56 57 59 57 51 50 55 63 67 71 74 76 84 87 96 100 96 96 105 103 103 105 105 107
58 58 54 54 55 54 56 51 50 50 47 42 44 47 40 45 46 49 48 49 52 57 62 61 65 61 55 59 66 72 76 72 81 85 88 95 100 93 93 104 102 108 106 110 110
62 61 60 56 57 57 52 54 54 53 50 49 49 47 45 47 49 50 50 51 55 57 64 66 69 73 66 63 68 74 76 81 83 82 88 96 97 95 86 104 100 110 108 115 113
Wind_Direction
275 271 273 243 268 260 244 273 265 199 279 281 289 306 303 298 299 313 324 340 336 305 306 308 19 314 339 322 18 15 359 18 358 351 359 348 347 339 324 328 306 317 315 292 289
257 259 269 267 260 208 264 255 238 282 270 278 284 298 292 309 308 319 321 352 301 304 304 334 324 316 316 348 4 1 333 296 358 20 340 360 326 326 330 319 327 311 304 297 300
270 249 250 214 200 244 268 259 226 248 255 259 285 291 291 296 312 311 349 301 323 316 341 359 315 337 350 354 343 24 9 29 18 12 18 10 6 354 345 336 334 318 302 300 322
243 220 222 188 233 263 256 255 267 244 266 270 280 271 281 299 314 314 311 334 317 346 323 334 319 351 341 351 356 350 11 12 22 347 343 359 359 3 353 354 343 330 327 330 326
233 219 213 249 228 269 270 277 274 259 261 264 282 270 293 304 305 318 308 331 327 335 319 324 338 345 323 346 344 0 3 357 4 359 356 351 346 353 355 348 315 325 321 309 327
213 190 182 221 262 223 277 271 271 260 232 291 266 285 289 296 304 314 320 316 323 327 317 340 343 344 349 344 344 346 345 340 344 341 340 348 342 342 350 343 340 320 345 344 340
190 176 213 193 225 250 256 270 252 278 297 279 283 264 287 297 305 310 306 320 320 341 331 325 339 342 342 339 337 336 338 340 335 344 334 328 339 342 355 353 352 352 352 347 342
182 206 215 207 215 221 242 240 255 269 245 252 286 268 281 295 308 309 324 317 330 318 331 331 336 337 337 334 336 333 335 339 340 355 345 345 340 352 346 338 343 344 325 346 342
204 191 198 216 217 220 236 243 250 261 240 298 251 271 276 292 307 310 320 320 321 326 328 332 333 335 334 338 338 338 338 337 339 352 344 343 344 343 335 342 345 350 344 345 341
198 206 200 208 219 229 240 262 254 240 256 298 289 275 275 288 310 313 318 321 324 327 330 330 335 337 343 335 342 334 341 338 339 341 343 343 342 342 339 341 339 350 345 347 343
195 198 215 215 223 233 257 245 248 249 254 296 248 273 281 282 305 308 316 320 326 326 328 329 335 335 336 336 345 335 339 342 341 338 343 343 340 340 347 336 337 352 351 346 341
208 207 211 244 223 248 235 252 255 259 258 272 287 283 283 285 291 308 312 321 321 323 327 328 331 335 338 339 335 342 347 340 339 339 341 342 343 342 338 347 350 349 348 342 339
206 215 239 220 229 237 242 248 255 268 268 270 269 281 289 282 305 312 309 321 322 323 325 330 333 335 337 341 344 331 343 343 337 338 344 339 341 340 339 346 349 346 347 343 339
208 216 213 224 232 259 242 251 261 266 281 278 284 279 286 284 290 307 312 316 319 319 324 329 333 337 340 340 331 338 341 342 342 339 341 343 336 339 346 339 346 346 345 340 336
215 215 234 222 250 248 239 280 274 278 276 284 276 283 285 286 307 311 311 314 316 322 325 330 333 335 336 335 334 341 340 341 338 338 341 341 338 341 345 347 346 344 343 339 337
239 219 244 232 238 244 244 278 262 269 283 278 277 282 295 304 300 305 308 313 318 322 327 331 334 334 334 332 337 339 340 338 339 340 341 343 339 334 343 347 345 346 343 341 338
218 220 221 231 242 267 251 265 272 264 273 279 277 308 288 294 303 306 324 325 319 322 325 330 335 334 335 334 335 338 338 340 341 342 340 342 335 338 347 347 347 345 338 340 342
242 223 228 264 239 248 249 257 261 263 271 280 284 288 289 296 299 306 332 318 319 327 321 329 332 336 338 336 339 341 340 341 340 340 339 341 344 345 347 348 347 345 344 344 344
221 231 263 249 240 245 250 254 259 267 269 275 278 285 291 296 298 302 307 313 317 327 327 329 331 336 329 334 337 337 338 340 340 340 340 334 346 349 349 350 349 347 346 346 344
226 234 224 238 241 246 248 253 261 264 269 274 282 288 292 294 298 304 309 311 321 318 326 329 333 329 329 333 334 336 336 337 338 340 340 340 345 350 351 352 348 348 346 345 344
226 231 229 238 245 249 248 268 258 265 269 276 284 285 294 294 299 302 309 311 319 321 325 328 329 330 328 330 333 335 336 338 338 337 340 346 346 352 351 352 349 348 345 346 345
224 239 228 243 245 246 246 253 255 263 268 276 282 287 294 296 301 301 307 309 317 320 321 323 328 332 326 328 332 335 338 339 336 336 344 343 353 350 351 351 350 349 345 347 349
228 228 228 228 239 246 251 247 262 266 273 277 284 287 295 294 300 302 305 309 315 316 319 320 326 329 327 328 331 335 338 339 336 346 347 345 353 353 352 351 351 350 347 347 351
227 227 240 240 228 247 255 261 256 265 275 278 284 288 289 292 297 301 304 310 312 313 314 316 323 326 326 326 327 334 334 337 340 347 348 351 353 353 349 352 353 352 351 352 344
233 231 238 247 245 242 253 260 260 266 272 271 272 276 290 293 295 300 304 308 309 310 313 314 318 323 329 325 329 330 335 341 342 348 348 351 352 352 350 353 355 351 353 353 352
232 235 232 236 250 244 242 245 260 266 266 265 271 284 284 287 297 299 303 306 307 309 313 319 320 324 332 331 332 334 336 341 345 347 346 350 351 352 350 354 352 352 354 353 351
231 234 237 235 238 243 247 254 261 262 267 270 277 281 282 290 297 297 300 304 306 307 311 315 318 320 328 332 334 336 337 339 345 344 344 348 350 352 348 354 352 354 352 353 352